| time (UTC) | temp C | wind direction | speed KPH | gust KPH | rain 1hr cm | rain 24hr cm | rain mn cm | humidity % | barometer mb |
| 20260906213122 | 29 | 137 | 6.4 | 8.0 | 0.00 | 0.00 | 0.00 | 43 | 1016.3 |
| 20260906212125 | 28 | 113 | 6.4 | 8.0 | 0.00 | 0.00 | 0.00 | 45 | 1016.4 |
| 20260906211123 | 28 | 112 | 4.8 | 8.0 | 0.00 | 0.00 | 0.00 | 46 | 1016.6 |
| 20260906210143 | 28 | 119 | 6.4 | 8.0 | 0.00 | 0.00 | 0.00 | 46 | 1016.6 |
| 20260906205122 | 29 | 116 | 6.4 | 9.7 | 0.00 | 0.00 | 0.00 | 46 | 1016.7 |
| 20260906204122 | 28 | 143 | 6.4 | 12.9 | 0.00 | 0.00 | 0.00 | 48 | 1016.8 |
| 20260906203124 | 30 | 128 | 6.4 | 8.0 | 0.00 | 0.00 | 0.00 | 44 | 1016.8 |
| 20260906202122 | 28 | 105 | 6.4 | 9.7 | 0.00 | 0.00 | 0.00 | 46 | 1016.9 |
| 20260906201125 | 27 | 118 | 6.4 | 9.7 | 0.00 | 0.00 | 0.00 | 47 | 1016.9 |
| 20260906200143 | 28 | 113 | 6.4 | 8.0 | 0.00 | 0.00 | 0.00 | 45 | 1016.9 |
| 20260906195122 | 30 | 95 | 6.4 | 11.3 | 0.00 | 0.00 | 0.00 | 44 | 1017.0 |
| 20260906194120 | 30 | 131 | 4.8 | 8.0 | 0.00 | 0.00 | 0.00 | 44 | 1017.1 |
| 20260906193120 | 31 | 102 | 6.4 | 9.7 | 0.00 | 0.00 | 0.00 | 42 | 1017.2 |
| 20260906192120 | 30 | 110 | 6.4 | 9.7 | 0.00 | 0.00 | 0.00 | 43 | 1017.3 |
| 20260906191120 | 28 | 95 | 6.4 | 9.7 | 0.00 | 0.00 | 0.00 | 43 | 1017.6 |
| 20260906190120 | 29 | 113 | 6.4 | 9.7 | 0.00 | 0.00 | 0.00 | 42 | 1017.6 |
| 20260906185120 | 28 | 96 | 4.8 | 8.0 | 0.00 | 0.00 | 0.00 | 44 | 1017.7 |
| 20260906184120 | 28 | 97 | 4.8 | 8.0 | 0.00 | 0.00 | 0.00 | 43 | 1018.0 |
| 20260906183120 | 29 | 102 | 4.8 | 8.0 | 0.00 | 0.00 | 0.00 | 42 | 1018.1 |
| 20260906182120 | 28 | 112 | 4.8 | 8.0 | 0.00 | 0.00 | 0.00 | 45 | 1018.2 |
| 20260906181120 | 28 | 121 | 4.8 | 8.0 | 0.00 | 0.00 | 0.00 | 44 | 1018.4 |
| 20260906180120 | 28 | 107 | 4.8 | 8.0 | 0.00 | 0.00 | 0.00 | 45 | 1018.4 |
| 20260906175123 | 27 | 95 | 4.8 | 8.0 | 0.00 | 0.00 | 0.00 | 46 | 1018.5 |
| 20260906174120 | 26 | 114 | 4.8 | 6.4 | 0.00 | 0.00 | 0.00 | 47 | 1018.6 |
| 20260906173123 | 26 | 115 | 4.8 | 8.0 | 0.00 | 0.00 | 0.00 | 48 | 1018.6 |
| 20260906172120 | 26 | 86 | 4.8 | 6.4 | 0.00 | 0.00 | 0.00 | 48 | 1018.7 |
| 20260906171120 | 26 | 106 | 4.8 | 8.0 | 0.00 | 0.00 | 0.00 | 48 | 1018.8 |
| 20260906170121 | 26 | 72 | 4.8 | 8.0 | 0.00 | 0.00 | 0.00 | 48 | 1018.8 |
| 20260906165120 | 25 | 40 | 3.2 | 8.0 | 0.00 | 0.00 | 0.00 | 49 | 1018.8 |
| 20260906164121 | 24 | 81 | 4.8 | 6.4 | 0.00 | 0.00 | 0.00 | 50 | 1018.8 |
| 20260906163142 | 25 | 83 | 4.8 | 8.0 | 0.00 | 0.00 | 0.00 | 50 | 1018.7 |
| 20260906162123 | 25 | 91 | 3.2 | 8.0 | 0.00 | 0.00 | 0.00 | 50 | 1018.8 |
| 20260906161120 | 25 | 20 | 3.2 | 8.0 | 0.00 | 0.00 | 0.00 | 50 | 1018.8 |
| 20260906160120 | 25 | 72 | 3.2 | 6.4 | 0.00 | 0.00 | 0.00 | 51 | 1018.8 |
| 20260906155120 | 24 | 331 | 3.2 | 6.4 | 0.00 | 0.00 | 0.00 | 51 | 1018.7 |
| 20260906154120 | 24 | 344 | 3.2 | 8.0 | 0.00 | 0.00 | 0.00 | 50 | 1018.6 |
| 20260906153122 | 25 | 14 | 3.2 | 6.4 | 0.00 | 0.00 | 0.00 | 48 | 1018.6 |
| 20260906152141 | 24 | 300 | 3.2 | 8.0 | 0.00 | 0.00 | 0.00 | 49 | 1018.7 |
| 20260906151122 | 23 | 299 | 3.2 | 9.7 | 0.00 | 0.00 | 0.00 | 53 | 1018.5 |
| 20260906150120 | 22 | 313 | 3.2 | 8.0 | 0.00 | 0.00 | 0.00 | 55 | 1018.5 |
| 20260906145122 | 21 | 337 | 3.2 | 6.4 | 0.00 | 0.00 | 0.00 | 56 | 1018.6 |
| 20260906144121 | 21 | 256 | 3.2 | 6.4 | 0.00 | 0.00 | 0.00 | 58 | 1018.5 |
| 20260906143121 | 20 | 275 | 3.2 | 6.4 | 0.00 | 0.00 | 0.00 | 60 | 1018.4 |
| 20260906142121 | 20 | 270 | 1.6 | 4.8 | 0.00 | 0.00 | 0.00 | 61 | 1018.3 |
| 20260906141121 | 18 | 270 | 3.2 | 4.8 | 0.00 | 0.00 | 0.00 | 64 | 1018.2 |
| 20260906140121 | 17 | 270 | 1.6 | 3.2 | 0.00 | 0.00 | 0.00 | 68 | 1018.2 |
| 20260906135121 | 15 | 304 | 1.6 | 6.4 | 0.00 | 0.00 | 0.00 | 71 | 1018.2 |
| 20260906134122 | 15 | 337 | 1.6 | 4.8 | 0.00 | 0.00 | 0.00 | 71 | 1018.2 |
| 20260906133121 | 15 | 337 | 1.6 | 4.8 | 0.00 | 0.00 | 0.00 | 72 | 1018.1 |
| 20260906132142 | 15 | 337 | 3.2 | 4.8 | 0.00 | 0.00 | 0.00 | 72 | 1018.0 |
| 20260906131142 | 15 | 340 | 1.6 | 4.8 | 0.00 | 0.00 | 0.00 | 72 | 1017.9 |
| 20260906130121 | 14 | 360 | 1.6 | 4.8 | 0.00 | 0.00 | 0.00 | 71 | 1017.9 |
| 20260906125122 | 15 | 360 | 1.6 | 3.2 | 0.00 | 0.00 | 0.00 | 70 | 1018.0 |
| 20260906124142 | 15 | 360 | 1.6 | 4.8 | 0.00 | 0.00 | 0.00 | 70 | 1018.0 |
| 20260906123122 | 15 | 360 | 3.2 | 4.8 | 0.00 | 0.00 | 0.00 | 70 | 1018.0 |
| 20260906122121 | 15 | 360 | 1.6 | 3.2 | 0.00 | 0.00 | 0.00 | 70 | 1017.9 |
| 20260906121121 | 15 | 360 | 1.6 | 4.8 | 0.00 | 0.00 | 0.00 | 71 | 1017.9 |
| 20260906120121 | 14 | 360 | 1.6 | 3.2 | 0.00 | 0.00 | 0.00 | 71 | 1017.9 |
| 20260906115121 | 14 | 360 | 1.6 | 3.2 | 0.00 | 0.00 | 0.00 | 71 | 1017.8 |
| 20260906114122 | 14 | 360 | 3.2 | 4.8 | 0.00 | 0.00 | 0.00 | 71 | 1017.8 |
| 20260906113121 | 14 | 360 | 3.2 | 4.8 | 0.00 | 0.00 | 0.00 | 71 | 1017.7 |
| 20260906112121 | 14 | 360 | 3.2 | 4.8 | 0.00 | 0.00 | 0.00 | 73 | 1017.6 |
| 20260906111121 | 14 | 360 | 3.2 | 4.8 | 0.00 | 0.00 | 0.00 | 73 | 1017.5 |
| 20260906110142 | 15 | 360 | 3.2 | 3.2 | 0.00 | 0.00 | 0.00 | 73 | 1017.5 |
| 20260906105121 | 15 | 360 | 0.0 | 0.0 | 0.00 | 0.00 | 0.00 | 73 | 1017.6 |
| 20260906104120 | 15 | 360 | 0.0 | 0.0 | 0.00 | 0.00 | 0.00 | 73 | 1017.6 |
| 20260906103120 | 15 | 360 | 1.6 | 3.2 | 0.00 | 0.00 | 0.00 | 73 | 1017.7 |
| 20260906102120 | 15 | 360 | 3.2 | 4.8 | 0.00 | 0.00 | 0.00 | 73 | 1017.7 |
| 20260906101120 | 15 | 360 | 3.2 | 3.2 | 0.00 | 0.00 | 0.00 | 73 | 1017.8 |
| 20260906100120 | 15 | 360 | 0.0 | 3.2 | 0.00 | 0.00 | 0.00 | 73 | 1017.8 |
| 20260906095141 | 16 | 360 | 3.2 | 4.8 | 0.00 | 0.00 | 0.00 | 74 | 1017.9 |
| 20260906094120 | 16 | 360 | 1.6 | 3.2 | 0.00 | 0.00 | 0.00 | 73 | 1017.8 |
| 20260906093120 | 16 | 360 | 1.6 | 4.8 | 0.00 | 0.00 | 0.00 | 75 | 1017.8 |
| 20260906092123 | 16 | 360 | 3.2 | 4.8 | 0.00 | 0.00 | 0.00 | 75 | 1017.7 |
| 20260906091120 | 16 | 360 | 1.6 | 4.8 | 0.00 | 0.00 | 0.00 | 76 | 1017.7 |
| 20260906090120 | 16 | 360 | 3.2 | 3.2 | 0.00 | 0.00 | 0.00 | 76 | 1017.7 |
| 20260906085120 | 17 | 360 | 0.0 | 3.2 | 0.00 | 0.00 | 0.00 | 76 | 1017.7 |
| 20260906084120 | 17 | 360 | 1.6 | 3.2 | 0.00 | 0.00 | 0.00 | 76 | 1017.7 |
| 20260906083142 | 17 | 360 | 0.0 | 3.2 | 0.00 | 0.00 | 0.00 | 77 | 1017.8 |
| 20260906082120 | 17 | 360 | 0.0 | 0.0 | 0.00 | 0.00 | 0.00 | 77 | 1017.8 |
| 20260906081122 | 17 | 360 | 0.0 | 0.0 | 0.00 | 0.00 | 0.00 | 77 | 1017.8 |
| 20260906080121 | 17 | 360 | 0.0 | 0.0 | 0.00 | 0.00 | 0.00 | 77 | 1017.8 |
| 20260906075122 | 17 | 11 | 0.0 | 3.2 | 0.00 | 0.00 | 0.00 | 77 | 1017.8 |
| 20260906074141 | 17 | 23 | 0.0 | 3.2 | 0.00 | 0.00 | 0.00 | 77 | 1017.8 |
| 20260906073120 | 17 | 23 | 3.2 | 4.8 | 0.00 | 0.00 | 0.00 | 77 | 1017.9 |
| 20260906072120 | 17 | 23 | 1.6 | 4.8 | 0.00 | 0.00 | 0.00 | 77 | 1018.0 |
| 20260906071141 | 17 | 23 | 0.0 | 3.2 | 0.00 | 0.00 | 0.00 | 76 | 1018.1 |
| 20260906070122 | 17 | 23 | 0.0 | 3.2 | 0.00 | 0.00 | 0.00 | 75 | 1018.1 |
| 20260906065120 | 17 | 23 | 0.0 | 0.0 | 0.00 | 0.00 | 0.00 | 75 | 1018.0 |
| 20260906064122 | 17 | 23 | 0.0 | 0.0 | 0.00 | 0.00 | 0.00 | 75 | 1018.2 |
| 20260906063120 | 17 | 23 | 1.6 | 3.2 | 0.00 | 0.00 | 0.00 | 75 | 1018.1 |
| 20260906062142 | 17 | 23 | 0.0 | 0.0 | 0.00 | 0.00 | 0.00 | 75 | 1018.0 |
| 20260906061120 | 17 | 23 | 1.6 | 4.8 | 0.00 | 0.00 | 0.00 | 75 | 1017.9 |
| 20260906060120 | 17 | 23 | 0.0 | 0.0 | 0.00 | 0.00 | 0.00 | 76 | 1017.9 |
| 20260906055120 | 17 | 23 | 3.2 | 4.8 | 0.00 | 0.00 | 0.00 | 75 | 1017.9 |
| 20260906054121 | 17 | 23 | 1.6 | 3.2 | 0.00 | 0.00 | 0.00 | 75 | 1017.9 |
| 20260906053121 | 18 | 23 | 1.6 | 4.8 | 0.00 | 0.00 | 0.00 | 74 | 1017.8 |
| 20260906052120 | 18 | 23 | 3.2 | 4.8 | 0.00 | 0.00 | 0.00 | 74 | 1017.9 |
| 20260906045121 | 18 | 23 | 0.0 | 0.0 | 0.00 | 0.00 | 0.00 | 76 | 1018.0 |
| 20260906044143 | 18 | 23 | 0.0 | 0.0 | 0.00 | 0.00 | 0.00 | 76 | 1018.0 |
| 20260906043122 | 18 | 23 | 0.0 | 0.0 | 0.00 | 0.00 | 0.00 | 76 | 1018.0 |
| 20260906042121 | 18 | 23 | 0.0 | 0.0 | 0.00 | 0.00 | 0.00 | 76 | 1018.0 |
| 20260906041122 | 18 | 23 | 0.0 | 0.0 | 0.00 | 0.00 | 0.00 | 76 | 1018.1 |
| 20260906040122 | 18 | 23 | 0.0 | 3.2 | 0.00 | 0.00 | 0.00 | 76 | 1018.1 |
| 20260906035122 | 19 | 23 | 0.0 | 0.0 | 0.00 | 0.00 | 0.00 | 75 | 1018.1 |
| 20260906034122 | 19 | 23 | 0.0 | 0.0 | 0.00 | 0.00 | 0.00 | 75 | 1018.2 |
| 20260906033124 | 19 | 23 | 0.0 | 0.0 | 0.00 | 0.00 | 0.00 | 75 | 1018.0 |
| 20260906032143 | 19 | 23 | 0.0 | 0.0 | 0.00 | 0.00 | 0.00 | 75 | 1018.0 |
| 20260906031125 | 19 | 23 | 0.0 | 0.0 | 0.00 | 0.00 | 0.00 | 73 | 1017.9 |
| 20260906030122 | 20 | 23 | 0.0 | 0.0 | 0.00 | 0.00 | 0.00 | 72 | 1017.9 |
| 20260906025144 | 20 | 23 | 0.0 | 0.0 | 0.00 | 0.00 | 0.00 | 72 | 1017.7 |
| 20260906024143 | 20 | 23 | 3.2 | 4.8 | 0.00 | 0.00 | 0.00 | 71 | 1017.7 |
| 20260906023122 | 21 | 23 | 3.2 | 4.8 | 0.00 | 0.00 | 0.00 | 70 | 1017.6 |
| 20260906022122 | 21 | 23 | 4.8 | 6.4 | 0.00 | 0.00 | 0.00 | 68 | 1017.5 |
| 20260906021143 | 21 | 23 | 4.8 | 6.4 | 0.00 | 0.00 | 0.00 | 63 | 1017.3 |
| 20260906020122 | 21 | 28 | 4.8 | 8.0 | 0.00 | 0.00 | 0.00 | 55 | 1017.3 |
| 20260906015122 | 22 | 45 | 0.0 | 0.0 | 0.00 | 0.00 | 0.00 | 45 | 1017.0 |
| 20260906014122 | 22 | 45 | 0.0 | 0.0 | 0.00 | 0.00 | 0.00 | 45 | 1017.1 |
| 20260906013120 | 22 | 45 | 0.0 | 0.0 | 0.00 | 0.00 | 0.00 | 45 | 1017.0 |
| 20260906012120 | 23 | 45 | 0.0 | 0.0 | 0.00 | 0.00 | 0.00 | 44 | 1017.0 |
| 20260906011142 | 24 | 45 | 0.0 | 0.0 | 0.00 | 0.00 | 0.00 | 44 | 1017.2 |
| 20260906010142 | 25 | 45 | 0.0 | 0.0 | 0.00 | 0.00 | 0.00 | 43 | 1017.2 |
| 20260906005121 | 25 | 45 | 0.0 | 0.0 | 0.00 | 0.00 | 0.00 | 42 | 1017.3 |
| 20260906004121 | 26 | 45 | 0.0 | 0.0 | 0.00 | 0.00 | 0.00 | 40 | 1017.2 |
| 20260906003121 | 26 | 45 | 0.0 | 0.0 | 0.00 | 0.00 | 0.00 | 40 | 1017.2 |
| 20260906002142 | 26 | 45 | 0.0 | 0.0 | 0.00 | 0.00 | 0.00 | 39 | 1017.2 |
| 20260906001121 | 27 | 45 | 0.0 | 0.0 | 0.00 | 0.00 | 0.00 | 39 | 1017.1 |
| 20260906000143 | 27 | 45 | 0.0 | 1.6 | 0.00 | 0.00 | 0.00 | 38 | 1017.1 |
| 20260905235121 | 27 | 45 | 0.0 | 0.0 | 0.00 | 0.00 | 0.00 | 37 | 1017.0 |
| 20260905234124 | 27 | 45 | 1.6 | 3.2 | 0.00 | 0.00 | 0.00 | 37 | 1017.1 |
| 20260905233142 | 27 | 45 | 0.0 | 4.8 | 0.00 | 0.00 | 0.00 | 38 | 1017.0 |
| 20260905232123 | 28 | 45 | 3.2 | 4.8 | 0.00 | 0.00 | 0.00 | 36 | 1016.9 |
| 20260905231121 | 28 | 45 | 1.6 | 6.4 | 0.00 | 0.00 | 0.00 | 37 | 1016.9 |
| 20260905230121 | 27 | 23 | 0.0 | 3.2 | 0.00 | 0.00 | 0.00 | 38 | 1016.9 |
| 20260905225121 | 27 | 23 | 1.6 | 3.2 | 0.00 | 0.00 | 0.00 | 38 | 1017.1 |
| 20260905224121 | 28 | 23 | 1.6 | 4.8 | 0.00 | 0.00 | 0.00 | 37 | 1017.3 |
| 20260905223123 | 27 | 23 | 1.6 | 4.8 | 0.00 | 0.00 | 0.00 | 37 | 1017.3 |
| 20260905222121 | 27 | 47 | 3.2 | 6.4 | 0.00 | 0.00 | 0.00 | 37 | 1017.2 |
| 20260905221123 | 27 | 194 | 1.6 | 4.8 | 0.00 | 0.00 | 0.00 | 38 | 1017.3 |
| 20260905220121 | 26 | 298 | 3.2 | 6.4 | 0.00 | 0.00 | 0.00 | 38 | 1017.3 |
| 20260905215123 | 26 | 23 | 3.2 | 4.8 | 0.00 | 0.00 | 0.00 | 39 | 1017.3 |
| 20260905214121 | 26 | 50 | 1.6 | 4.8 | 0.00 | 0.00 | 0.00 | 40 | 1017.6 |